This is the latest recevied weather packets stored in our database for station/object F5PQL-4. If no packets are shown the sender has not sent any weather packets the latest 10 day(s).
| Time | Temp. | Humidity | Pressure | Rain* | Wind** | Luminosity | Snow |
|---|---|---|---|---|---|---|---|
| 1778027794 | 13.33° C | 76% | 1010.5 hPa | - | - | - | - |
| 1778026894 | 13.89° C | 75% | 1010.6 hPa | - | - | - | - |
| 1778025994 | 13.89° C | 74% | 1010.9 hPa | - | - | - | - |
| 1778025094 | 13.89° C | 75% | 1011.2 hPa | - | - | - | - |
| 1778024194 | 13.89° C | 75% | 1011.4 hPa | - | - | - | - |
| 1778023294 | 13.89° C | 75% | 1011.5 hPa | - | - | - | - |
| 1778022394 | 13.33° C | 75% | 1011.5 hPa | - | - | - | - |
| 1778021494 | 13.33° C | 76% | 1011.4 hPa | - | - | - | - |
| 1778020593 | 13.33° C | 75% | 1011.4 hPa | - | - | - | - |
| 1778019693 | 13.89° C | 74% | 1011.3 hPa | - | - | - | - |
| 1778018793 | 13.89° C | 74% | 1011.5 hPa | - | - | - | - |
| 1778017893 | 13.33° C | 74% | 1011.8 hPa | - | - | - | - |
| 1778016993 | 13.33° C | 72% | 1012.2 hPa | - | - | - | - |
| 1778016093 | 13.89° C | 70% | 1012.3 hPa | - | - | - | - |
| 1778015193 | 13.89° C | 67% | 1012.2 hPa | - | - | - | - |
| 1778014293 | 14.44° C | 65% | 1012.2 hPa | - | - | - | - |
| 1778013393 | 15° C | 62% | 1012.1 hPa | - | - | - | - |
| 1778012492 | 15.56° C | 63% | 1012.1 hPa | - | - | - | - |
| 1778011592 | 15° C | 63% | 1012 hPa | - | - | - | - |
| 1778010692 | 16.11° C | 61% | 1011.1 hPa | - | - | - | - |
| 1778009792 | 17.22° C | 60% | 1011 hPa | - | - | - | - |
| 1778008892 | 17.22° C | 62% | 1010.6 hPa | - | - | - | - |
| 1778007991 | 17.22° C | 62% | 1010.1 hPa | - | - | - | - |
| 1778007090 | 17.78° C | 59% | 1009.8 hPa | - | - | - | - |
| 1778006190 | 17.78° C | 58% | 1009.9 hPa | - | - | - | - |
* Rain since midnight (hover to see other rain measurements)
** Current wind speed in m/s (hover to see current wind gust speed)